Weather History for St. George, UT

Change the Weather History Date:

Monday, August 11, 2014

  Actual Average Record
Temperature  
Mean Temperature 86 °F -  
Max Temperature 100 °F 99 °F 112 °F (1940)
Min Temperature 73 °F 69 °F 56 °F (1932)
Cooling Degree Days 22    
Growing Degree Days 36 (Base 50)    
Moisture  
Dew Point 48 °F    
Average Humidity 30    
Maximum Humidity 69    
Minimum Humidity 16    
Precipitation  
Precipitation 0.04 in - - ()
Sea Level Pressure  
Sea Level Pressure 30.05 in    
Wind  
Wind Speed 6 mph (South)    
Max Wind Speed 30 mph    
Max Gust Speed 40 mph    
Visibility 10 miles    
Events Thunderstorm    
Averages and records for this station are not official NWS values.
T = Trace of Precipitation, MM = Missing Value Source: NWS Daily Summary

Daily Weather History Graph

Daily Weather History Graph

Search for Another Location

Airport:

Trip Planner

Search our weather history database for the weather conditions in past years. The results will help you decide how hot, cold, wet, or windy it might be!

Date:

Astronomy

Aug. 11, 2014 Rise Set
Actual Time 6:47 AM MDT 8:30 PM MDT
Civil Twilight 6:19 AM MDT 8:58 PM MDT
Nautical Twilight 5:46 AM MDT 9:32 PM MDT
Astronomical Twilight 5:10 AM MDT 10:08 PM MDT
Moon 9:05 PM MDT (8/11) 7:54 AM MDT (8/11)
Length of Visible Light 14h 38m
Length of Day
13h 42m
Full, 98% of the Moon is Illuminated
Aug 11
Full
Aug 17
Last Quarter
Aug 25
New
Sep 2
First Quarter
Sep 8
Full

Hourly Weather History & Observations

Time (MDT) Temp. Heat Index Dew Point Humidity Pressure Visibility Wind Dir Wind Speed Gust Speed Precip Events Conditions
12:15 AM 87.8 °F - 42.8 °F 21% 30.04 in 10.0 mi NNE 9.2 mph - N/A   Clear
12:35 AM 86.0 °F - 42.8 °F 22% 30.04 in 10.0 mi NNW 6.9 mph - N/A   Clear
12:55 AM 86.0 °F - 42.8 °F 22% 30.04 in 10.0 mi Calm Calm - N/A   Clear
1:15 AM 84.2 °F - 42.8 °F 23% 30.05 in 10.0 mi South 5.8 mph - N/A   Clear
1:35 AM 84.2 °F - 44.6 °F 25% 30.04 in 10.0 mi SW 3.5 mph - N/A   Clear
1:55 AM 82.4 °F - 42.8 °F 25% 30.05 in 10.0 mi ESE 8.1 mph - N/A   Clear
2:15 AM 82.4 °F - 42.8 °F 25% 30.05 in 10.0 mi South 3.5 mph - N/A   Clear
2:35 AM 84.2 °F - 42.8 °F 23% 30.04 in 10.0 mi Calm Calm - N/A   Clear
2:55 AM 82.4 °F - 42.8 °F 25% 30.05 in 10.0 mi Calm Calm - N/A   Clear
3:15 AM 82.4 °F - 42.8 °F 25% 30.04 in 10.0 mi NE 4.6 mph - N/A   Clear
3:35 AM 80.6 °F - 44.6 °F 28% 30.03 in 10.0 mi Calm Calm - N/A   Clear
3:55 AM 82.4 °F - 44.6 °F 26% 30.03 in 10.0 mi Calm Calm - N/A   Clear
4:15 AM 82.4 °F - 44.6 °F 26% 30.03 in 10.0 mi Calm Calm - N/A   Clear
4:35 AM 80.6 °F - 44.6 °F 28% 30.03 in 10.0 mi South 5.8 mph - N/A   Clear
4:55 AM 80.6 °F - 44.6 °F 28% 30.03 in 10.0 mi SSE 3.5 mph - N/A   Clear
5:15 AM 78.8 °F - 44.6 °F 30% 30.03 in 10.0 mi SW 3.5 mph - N/A   Clear
5:35 AM 80.6 °F - 44.6 °F 28% 30.04 in 10.0 mi Calm Calm - N/A   Clear
5:55 AM 77.0 °F - 44.6 °F 32% 30.04 in 10.0 mi ESE 3.5 mph - N/A   Clear
6:15 AM 78.8 °F - 44.6 °F 30% 30.03 in 10.0 mi Calm Calm - N/A   Clear
6:35 AM 77.0 °F - 44.6 °F 32% 30.04 in 10.0 mi SE 4.6 mph - N/A   Clear
6:55 AM 77.0 °F - 42.8 °F 29% 30.05 in 10.0 mi SSE 9.2 mph - N/A   Clear
7:15 AM 77.0 °F - 44.6 °F 32% 30.06 in 10.0 mi SE 5.8 mph - N/A   Clear
7:35 AM 78.8 °F - 44.6 °F 30% 30.05 in 10.0 mi NE 5.8 mph - N/A   Clear
7:55 AM 78.8 °F - 44.6 °F 30% 30.07 in 10.0 mi Calm Calm - N/A   Clear
8:15 AM 80.6 °F - 44.6 °F 28% 30.07 in 10.0 mi NNW 4.6 mph - N/A   Clear
8:35 AM 82.4 °F - 46.4 °F 28% 30.07 in 10.0 mi NNE 6.9 mph - N/A   Clear
8:55 AM 82.4 °F - 44.6 °F 26% 30.07 in 10.0 mi NNE 5.8 mph - N/A   Clear
9:15 AM 84.2 °F - 44.6 °F 25% 30.08 in 10.0 mi ESE 5.8 mph - N/A   Scattered Clouds
9:35 AM 84.2 °F - 46.4 °F 27% 30.09 in 10.0 mi Calm Calm - N/A   Partly Cloudy
9:55 AM 82.4 °F - 48.2 °F 30% 30.09 in 10.0 mi WSW 3.5 mph - N/A   Clear
10:15 AM 84.2 °F - 46.4 °F 27% 30.08 in 10.0 mi SW 4.6 mph - N/A   Clear
10:35 AM 84.2 °F - 46.4 °F 27% 30.08 in 10.0 mi South 5.8 mph - N/A   Clear
10:55 AM 84.2 °F - 46.4 °F 27% 30.09 in 10.0 mi South 4.6 mph - N/A   Clear
11:15 AM 86.0 °F - 46.4 °F 25% 30.09 in 10.0 mi Calm Calm - N/A   Clear
11:35 AM 89.6 °F - 44.6 °F 21% 30.09 in 10.0 mi Calm Calm - N/A   Clear
11:55 AM 89.6 °F - 44.6 °F 21% 30.08 in 10.0 mi WNW 3.5 mph - N/A   Clear
12:15 PM 91.4 °F - 44.6 °F 20% 30.07 in 10.0 mi Calm Calm - N/A   Clear
12:35 PM 93.2 °F - 44.6 °F 19% 30.07 in 10.0 mi Calm Calm - N/A   Clear
12:55 PM 95.0 °F - 44.6 °F 18% 30.06 in 10.0 mi Calm Calm - N/A   Clear
1:15 PM 96.8 °F - 46.4 °F 18% 30.05 in 10.0 mi North 8.1 mph - N/A   Clear
1:35 PM 96.8 °F - 46.4 °F 18% 30.04 in 10.0 mi South 3.5 mph - N/A   Clear
1:55 PM 98.6 °F - 46.4 °F 17% 30.03 in 10.0 mi SSW 5.8 mph - N/A   Clear
2:15 PM 98.6 °F - 46.4 °F 17% 30.03 in 10.0 mi Calm Calm - N/A   Clear
2:35 PM 100.4 °F - 48.2 °F 17% 30.01 in 10.0 mi NNE 10.4 mph - N/A   Clear
2:55 PM 100.4 °F - 46.4 °F 16% 30.00 in 10.0 mi WNW 3.5 mph - N/A   Clear
3:15 PM 100.4 °F - 46.4 °F 16% 29.99 in 10.0 mi NNW 4.6 mph - N/A   Clear
3:35 PM 100.4 °F - 46.4 °F 16% 29.98 in 10.0 mi West 13.8 mph 18.4 mph N/A   Clear
3:55 PM 98.6 °F - 46.4 °F 17% 29.97 in 10.0 mi SW 16.1 mph - N/A   Clear
4:35 PM 98.6 °F - 46.4 °F 17% 29.96 in 10.0 mi West 9.2 mph - N/A   Clear
4:55 PM 98.6 °F - 46.4 °F 17% 29.96 in 10.0 mi SW 5.8 mph - N/A   Clear
5:15 PM 96.8 °F - 46.4 °F 18% 29.97 in 10.0 mi South 13.8 mph 24.2 mph N/A   Partly Cloudy
5:35 PM 95.0 °F - 46.4 °F 19% 29.98 in 10.0 mi SSE 5.8 mph - N/A   Scattered Clouds
5:55 PM 93.2 °F - 46.4 °F 20% 30.00 in 10.0 mi ESE 10.4 mph - N/A Thunderstorm Scattered Clouds
6:15 PM 86.0 °F 84.5 °F 55.4 °F 35% 30.02 in 10.0 mi SSE 19.6 mph - N/A   Mostly Cloudy
6:35 PM 86.0 °F 84.2 °F 53.6 °F 33% 30.03 in 10.0 mi SE 24.2 mph 40.3 mph N/A   Partly Cloudy
6:55 PM 84.2 °F - 51.8 °F 33% 30.04 in 10.0 mi SSE 29.9 mph 35.7 mph N/A   Partly Cloudy
7:15 PM 84.2 °F - 51.8 °F 33% 30.04 in 10.0 mi South 25.3 mph 33.4 mph N/A   Mostly Cloudy
7:35 PM 82.4 °F - 51.8 °F 35% 30.06 in 10.0 mi SSE 28.8 mph 34.5 mph N/A   Scattered Clouds
7:55 PM 84.2 °F - 50.0 °F 30% 30.08 in 10.0 mi SSE 26.5 mph 32.2 mph N/A Thunderstorm Mostly Cloudy
8:15 PM 80.6 °F 80.3 °F 53.6 °F 39% 30.11 in 10.0 mi SSE 12.7 mph 25.3 mph N/A   Mostly Cloudy
8:35 PM 77.0 °F - 57.2 °F 50% 30.14 in 10.0 mi SE 9.2 mph - N/A   Overcast
8:55 PM 75.2 °F - 59.0 °F 57% 30.14 in 10.0 mi NNE 6.9 mph - 0.01 in   Overcast
9:15 PM 73.4 °F - 60.8 °F 65% 30.12 in 10.0 mi NNW 5.8 mph - 0.03 in   Overcast
9:35 PM 73.4 °F - 60.8 °F 65% 30.12 in 10.0 mi North 10.4 mph - 0.03 in   Scattered Clouds
9:55 PM 73.4 °F - 60.8 °F 65% 30.13 in 10.0 mi NE 5.8 mph - 0.03 in   Partly Cloudy
10:15 PM 75.2 °F - 59.0 °F 57% 30.13 in 10.0 mi SSE 4.6 mph - N/A   Clear
10:35 PM 73.4 °F - 60.8 °F 65% 30.13 in 10.0 mi SSW 6.9 mph - N/A   Clear
10:55 PM 73.4 °F - 62.6 °F 69% 30.14 in 10.0 mi SW 6.9 mph - N/A   Clear
11:35 PM 73.4 °F - 62.6 °F 69% 30.13 in 10.0 mi Calm Calm - N/A   Partly Cloudy
11:55 PM 73.4 °F - 60.8 °F 65% 30.13 in 10.0 mi South 4.6 mph - N/A   Clear